Location: Dortmund
(51.5019°N, 7.6520°E)
Time: 20:05:59
(UTC+01:00)

ISS - Pass Details

Date: 05 January 2018
Orbit: 401 x 407 km, 51.6° (Epoch: 17 January)

Event Time Altitude Azimuth Distance (km) Brightness Sun altitude
Exits shadow 07:38:01 10° 278° (W) 1,455 -1.6 -8.3°
Maximum altitude 07:41:17 85° 191° (SSW) 414 -3.8 -7.8°
Drops below altitude 10° 07:44:35 10° 102° (ESE) 1,469 0.5 -7.4°
Sets 07:46:40 0° 102° (ESE) 2,329 1.8 -7.1°
